Location: Hradec Kralove
(50.2170°N, 15.8330°E)
Time: 04:41:15
(UTC+01:00)

N. Korean satellite - Pass Details

Date: 06 December 2022
Orbit: 407 x 441 km, 97.3° (Epoch: 05 February)

Event Time Altitude Azimuth Distance (km) Brightness Sun altitude
Rises 16:44:49 0° 183° (S) 2,462 10.6 -7.7°
Reaches altitude 10° 16:46:55 10° 191° (SSW) 1,602 9.7 -8.0°
Maximum altitude 16:50:10 39° 262° (W) 717 8.1 -8.5°
Drops below altitude 10° 16:53:30 10° 333° (NNW) 1,637 9.3 -9.0°
Sets 16:55:40 0° 341° (NNW) 2,524 10.1 -9.3°
